Year,Month,Day,Hour,Minute,Value (Times are PST for windspeed in km/hr)
2019,04,06,00,00,3.90
2019,04,06,00,01,3.20
2019,04,06,00,02,3.90
2019,04,06,00,03,2.60
2019,04,06,00,04,3.00
2019,04,06,00,05,3.70
2019,04,06,00,06,1.50
2019,04,06,00,07,2.00
2019,04,06,00,08,2.60
2019,04,06,00,09,2.80
2019,04,06,00,10,2.40
2019,04,06,00,11,3.60
2019,04,06,00,12,2.70
2019,04,06,00,13,5.00
2019,04,06,00,14,4.10
2019,04,06,00,15,2.40
2019,04,06,00,16,5.10
2019,04,06,00,17,3.30
2019,04,06,00,18,2.90
2019,04,06,00,19,2.50
2019,04,06,00,20,3.00
2019,04,06,00,21,5.10
2019,04,06,00,22,4.80
2019,04,06,00,23,5.30
2019,04,06,00,24,5.20
2019,04,06,00,25,6.30
2019,04,06,00,26,3.70
2019,04,06,00,27,3.30
2019,04,06,00,28,2.50
2019,04,06,00,29,3.30
2019,04,06,00,30,2.60
2019,04,06,00,31,3.20
2019,04,06,00,32,3.80
2019,04,06,00,33,3.30
2019,04,06,00,34,1.60
2019,04,06,00,35,5.00
2019,04,06,00,36,4.60
2019,04,06,00,37,3.20
2019,04,06,00,38,1.60
2019,04,06,00,39,2.70
2019,04,06,00,40,3.30
2019,04,06,00,41,2.10
2019,04,06,00,42,3.80
2019,04,06,00,43,2.60
2019,04,06,00,44,2.00
2019,04,06,00,45,2.80
2019,04,06,00,46,2.90
2019,04,06,00,47,3.90
2019,04,06,00,48,2.20
2019,04,06,00,49,3.20
2019,04,06,00,50,4.20
2019,04,06,00,51,3.20
2019,04,06,00,52,2.70
2019,04,06,00,53,3.50
2019,04,06,00,54,7.80
2019,04,06,00,55,6.20
2019,04,06,00,56,6.70
2019,04,06,00,57,2.80
2019,04,06,00,58,2.90
2019,04,06,00,59,4.90
2019,04,06,01,00,3.50
2019,04,06,01,01,2.90
2019,04,06,01,02,3.90
2019,04,06,01,03,2.90
2019,04,06,01,04,2.50
2019,04,06,01,05,2.20
2019,04,06,01,06,0.60
2019,04,06,01,07,1.20
2019,04,06,01,08,0.30
2019,04,06,01,09,1.40
2019,04,06,01,10,3.60
2019,04,06,01,11,0.60
2019,04,06,01,12,0.40
2019,04,06,01,13,1.00
2019,04,06,01,14,4.00
2019,04,06,01,15,1.60
2019,04,06,01,16,1.70
2019,04,06,01,17,3.00
2019,04,06,01,18,2.30
2019,04,06,01,19,2.60
2019,04,06,01,20,1.40
2019,04,06,01,21,2.20
2019,04,06,01,22,2.20
2019,04,06,01,23,1.90
2019,04,06,01,24,2.60
2019,04,06,01,25,1.50
2019,04,06,01,26,1.80
2019,04,06,01,27,2.30
2019,04,06,01,28,3.80
2019,04,06,01,29,5.00
2019,04,06,01,30,3.20
2019,04,06,01,31,2.50
2019,04,06,01,32,3.00
2019,04,06,01,33,3.30
2019,04,06,01,34,1.80
2019,04,06,01,35,1.60
2019,04,06,01,36,2.00
2019,04,06,01,37,1.70
2019,04,06,01,38,1.20
2019,04,06,01,39,0.20
2019,04,06,01,40,0.20
2019,04,06,01,41,0.70
2019,04,06,01,42,0.10
2019,04,06,01,43,3.60
2019,04,06,01,44,1.90
2019,04,06,01,45,1.00
2019,04,06,01,46,2.40
2019,04,06,01,47,2.90
2019,04,06,01,48,6.20
2019,04,06,01,49,3.60
2019,04,06,01,50,5.70
2019,04,06,01,51,3.40
2019,04,06,01,52,0.80
2019,04,06,01,53,1.30
2019,04,06,01,54,0.10
2019,04,06,01,55,1.00
2019,04,06,01,56,4.50
2019,04,06,01,57,1.80
2019,04,06,01,58,4.20
2019,04,06,01,59,1.90
2019,04,06,02,00,2.90
2019,04,06,02,01,3.30
2019,04,06,02,02,2.10
2019,04,06,02,03,2.70
2019,04,06,02,04,2.50
2019,04,06,02,05,2.20
2019,04,06,02,06,3.20
2019,04,06,02,07,2.00
2019,04,06,02,08,1.10
2019,04,06,02,09,1.90
2019,04,06,02,10,1.30
2019,04,06,02,11,1.20
2019,04,06,02,12,1.90
2019,04,06,02,13,1.10
2019,04,06,02,14,1.40
2019,04,06,02,15,0.50
2019,04,06,02,16,1.60
2019,04,06,02,17,0.90
2019,04,06,02,18,2.30
2019,04,06,02,19,1.20
2019,04,06,02,20,7.20
2019,04,06,02,21,3.20
2019,04,06,02,22,4.80
2019,04,06,02,23,3.20
2019,04,06,02,24,4.70
2019,04,06,02,25,4.40
2019,04,06,02,26,1.60
2019,04,06,02,27,1.80
2019,04,06,02,28,4.60
2019,04,06,02,29,3.70
2019,04,06,02,30,4.50
2019,04,06,02,31,6.40
2019,04,06,02,32,2.70
2019,04,06,02,33,5.70
2019,04,06,02,34,3.20
2019,04,06,02,35,4.10
2019,04,06,02,36,2.80
2019,04,06,02,37,1.80
2019,04,06,02,38,3.90
2019,04,06,02,39,5.20
2019,04,06,02,40,1.90
2019,04,06,02,41,1.20
2019,04,06,02,42,2.40
2019,04,06,02,43,3.00
2019,04,06,02,44,1.90
2019,04,06,02,45,1.60
2019,04,06,02,46,4.00
2019,04,06,02,47,3.90
2019,04,06,02,48,3.90
2019,04,06,02,49,2.70
2019,04,06,02,50,3.80
2019,04,06,02,51,3.70
2019,04,06,02,52,3.30
2019,04,06,02,53,3.20
2019,04,06,02,54,1.60
2019,04,06,02,55,0.50
2019,04,06,02,56,2.70
2019,04,06,02,57,4.80
2019,04,06,02,58,3.20
2019,04,06,02,59,3.80
2019,04,06,03,00,4.80
2019,04,06,03,01,6.10
2019,04,06,03,02,5.70
2019,04,06,03,03,8.00
2019,04,06,03,04,2.20
2019,04,06,03,05,3.80
2019,04,06,03,06,5.10
2019,04,06,03,07,4.60
2019,04,06,03,08,3.10
2019,04,06,03,09,3.20
2019,04,06,03,10,7.50
2019,04,06,03,11,4.90
2019,04,06,03,12,6.50
2019,04,06,03,13,5.70
2019,04,06,03,14,4.70
2019,04,06,03,15,8.50
2019,04,06,03,16,7.30
2019,04,06,03,17,2.80
2019,04,06,03,18,3.70
2019,04,06,03,19,6.20
2019,04,06,03,20,5.00
2019,04,06,03,21,4.30
2019,04,06,03,22,5.60
2019,04,06,03,23,3.30
2019,04,06,03,24,3.80
2019,04,06,03,25,5.70
2019,04,06,03,26,8.10
2019,04,06,03,27,7.50
2019,04,06,03,28,8.30
2019,04,06,03,29,13.70
2019,04,06,03,30,12.10
2019,04,06,03,31,6.70
2019,04,06,03,32,8.10
2019,04,06,03,33,4.80
2019,04,06,03,34,9.70
2019,04,06,03,35,10.80
2019,04,06,03,36,9.10
2019,04,06,03,37,9.90
2019,04,06,03,38,9.80
2019,04,06,03,39,9.10
2019,04,06,03,40,11.60
2019,04,06,03,41,8.90
2019,04,06,03,42,11.00
2019,04,06,03,43,9.00
2019,04,06,03,44,9.70
2019,04,06,03,45,7.60
2019,04,06,03,46,4.50
2019,04,06,03,47,8.70
2019,04,06,03,48,5.80
2019,04,06,03,49,3.00
2019,04,06,03,50,4.70
2019,04,06,03,51,4.80
2019,04,06,03,52,8.70
2019,04,06,03,53,12.00
2019,04,06,03,54,9.90
2019,04,06,03,55,9.10
2019,04,06,03,56,7.30
2019,04,06,03,57,10.40
2019,04,06,03,58,9.50
2019,04,06,03,59,9.00
2019,04,06,04,00,6.70
2019,04,06,04,01,8.80
2019,04,06,04,02,6.00
2019,04,06,04,03,5.30
2019,04,06,04,04,4.50
2019,04,06,04,05,3.40
2019,04,06,04,06,3.20
2019,04,06,04,07,3.70
2019,04,06,04,08,5.50
2019,04,06,04,09,4.40
2019,04,06,04,10,6.50
2019,04,06,04,11,6.70
2019,04,06,04,12,4.20
2019,04,06,04,13,3.60
2019,04,06,04,14,3.90
2019,04,06,04,15,4.90
2019,04,06,04,16,3.90
2019,04,06,04,17,4.30
2019,04,06,04,18,3.90
2019,04,06,04,19,3.40
2019,04,06,04,20,4.50
2019,04,06,04,21,2.90
2019,04,06,04,22,4.50
2019,04,06,04,23,3.30
2019,04,06,04,24,2.60
2019,04,06,04,25,2.80
2019,04,06,04,26,4.20
2019,04,06,04,27,3.80
2019,04,06,04,28,3.00
2019,04,06,04,29,3.50
2019,04,06,04,30,5.20
2019,04,06,04,31,5.10
2019,04,06,04,32,5.10
2019,04,06,04,33,5.40
2019,04,06,04,34,6.60
2019,04,06,04,35,3.90
2019,04,06,04,36,7.90
2019,04,06,04,37,12.60
2019,04,06,04,38,9.20
2019,04,06,04,39,5.90
2019,04,06,04,40,7.90
2019,04,06,04,41,5.70
2019,04,06,04,42,7.40
2019,04,06,04,43,5.70
2019,04,06,04,44,5.10
2019,04,06,04,45,4.30
2019,04,06,04,46,3.30
2019,04,06,04,47,2.90
2019,04,06,04,48,3.90
2019,04,06,04,49,4.20
2019,04,06,04,50,3.80
2019,04,06,04,51,2.30
2019,04,06,04,52,4.60
2019,04,06,04,53,3.80
2019,04,06,04,54,4.60
2019,04,06,04,55,3.90
2019,04,06,04,56,2.40
2019,04,06,04,57,4.50
2019,04,06,04,58,7.70
2019,04,06,04,59,10.60
2019,04,06,05,00,8.60
2019,04,06,05,01,13.60
2019,04,06,05,02,7.80
2019,04,06,05,03,5.60
2019,04,06,05,04,2.70
2019,04,06,05,05,4.50
2019,04,06,05,06,5.70
2019,04,06,05,07,4.30
2019,04,06,05,08,6.00
2019,04,06,05,09,5.70
2019,04,06,05,10,8.10
2019,04,06,05,11,8.10
2019,04,06,05,12,12.00
2019,04,06,05,13,8.40
2019,04,06,05,14,6.90
2019,04,06,05,15,8.20
2019,04,06,05,16,6.20
2019,04,06,05,17,10.20
2019,04,06,05,18,11.30
2019,04,06,05,19,4.40
2019,04,06,05,20,8.50
2019,04,06,05,21,5.40
2019,04,06,05,22,4.20
2019,04,06,05,23,6.70
2019,04,06,05,24,5.10
2019,04,06,05,25,4.50
2019,04,06,05,26,9.80
2019,04,06,05,27,11.60
2019,04,06,05,28,4.80
2019,04,06,05,29,12.00
2019,04,06,05,30,9.20
2019,04,06,05,31,6.50
2019,04,06,05,32,7.30
2019,04,06,05,33,11.20
2019,04,06,05,34,9.20
2019,04,06,05,35,10.00
2019,04,06,05,36,12.10
2019,04,06,05,37,12.00
2019,04,06,05,38,11.50
2019,04,06,05,39,15.80
2019,04,06,05,40,13.70
2019,04,06,05,41,11.30
2019,04,06,05,42,10.90
2019,04,06,05,43,14.30
2019,04,06,05,44,13.90
2019,04,06,05,45,13.80
2019,04,06,05,46,12.20
2019,04,06,05,47,10.60
2019,04,06,05,48,7.50
2019,04,06,05,49,9.20
2019,04,06,05,50,11.00
2019,04,06,05,51,11.90
2019,04,06,05,52,11.60
2019,04,06,05,53,12.60
2019,04,06,05,54,8.50
2019,04,06,05,55,8.10
2019,04,06,05,56,8.30
2019,04,06,05,57,11.40
2019,04,06,05,58,11.40
2019,04,06,05,59,11.60
2019,04,06,06,00,12.20
2019,04,06,06,01,13.90
2019,04,06,06,02,13.30
2019,04,06,06,03,15.70
2019,04,06,06,04,14.80
2019,04,06,06,05,16.60
2019,04,06,06,06,14.30
2019,04,06,06,07,12.50
2019,04,06,06,08,14.00
2019,04,06,06,09,12.30
2019,04,06,06,10,12.80
2019,04,06,06,11,15.60
2019,04,06,06,12,15.10
2019,04,06,06,13,17.80
2019,04,06,06,14,16.10
2019,04,06,06,15,11.60
2019,04,06,06,16,10.90
2019,04,06,06,17,9.70
2019,04,06,06,18,13.20
2019,04,06,06,19,12.00
2019,04,06,06,20,9.70
2019,04,06,06,21,12.80
2019,04,06,06,22,13.00
2019,04,06,06,23,10.20
2019,04,06,06,24,11.90
2019,04,06,06,25,10.30
2019,04,06,06,26,10.50
2019,04,06,06,27,11.30
2019,04,06,06,28,10.70
2019,04,06,06,29,11.70
2019,04,06,06,30,13.00
2019,04,06,06,31,13.00
2019,04,06,06,32,14.70
2019,04,06,06,33,12.50
2019,04,06,06,34,12.10
2019,04,06,06,35,9.30
2019,04,06,06,36,12.50
2019,04,06,06,37,10.50
2019,04,06,06,38,10.10
2019,04,06,06,39,9.50
2019,04,06,06,40,8.10
2019,04,06,06,41,11.20
2019,04,06,06,42,11.70
2019,04,06,06,43,13.00
2019,04,06,06,44,10.40
2019,04,06,06,45,10.40
2019,04,06,06,46,12.80
2019,04,06,06,47,17.40
2019,04,06,06,48,17.10
2019,04,06,06,49,15.90
2019,04,06,06,50,14.50
2019,04,06,06,51,15.00
2019,04,06,06,52,19.10
2019,04,06,06,53,17.00
2019,04,06,06,54,19.20
2019,04,06,06,55,17.40
2019,04,06,06,56,18.20
2019,04,06,06,57,19.40
2019,04,06,06,58,19.00
2019,04,06,06,59,19.10
2019,04,06,07,00,18.40
2019,04,06,07,01,20.70
2019,04,06,07,02,22.20
2019,04,06,07,03,20.90
2019,04,06,07,04,20.60
2019,04,06,07,05,21.10
2019,04,06,07,06,22.50
2019,04,06,07,07,22.10
2019,04,06,07,08,22.80
2019,04,06,07,09,24.90
2019,04,06,07,10,21.40
2019,04,06,07,11,22.30
2019,04,06,07,12,23.90
2019,04,06,07,13,21.70
2019,04,06,07,14,20.00
2019,04,06,07,15,25.90
2019,04,06,07,16,20.60
2019,04,06,07,17,21.40
2019,04,06,07,18,18.80
2019,04,06,07,19,20.30
2019,04,06,07,20,21.00
2019,04,06,07,21,15.90
2019,04,06,07,22,17.10
2019,04,06,07,23,17.40
2019,04,06,07,24,17.00
2019,04,06,07,25,16.10
2019,04,06,07,26,17.50
2019,04,06,07,27,21.30
2019,04,06,07,28,19.80
2019,04,06,07,29,18.40
2019,04,06,07,30,20.50
2019,04,06,07,31,21.10
2019,04,06,07,32,18.60
2019,04,06,07,33,14.50
2019,04,06,07,34,17.90
2019,04,06,07,35,16.30
2019,04,06,07,36,18.20
2019,04,06,07,37,20.10
2019,04,06,07,38,18.00
2019,04,06,07,39,19.80
2019,04,06,07,40,21.40
2019,04,06,07,41,22.70
2019,04,06,07,42,19.40
2019,04,06,07,43,18.30
2019,04,06,07,44,21.30
2019,04,06,07,45,21.00
2019,04,06,07,46,21.60
2019,04,06,07,47,18.20
2019,04,06,07,48,19.90
2019,04,06,07,49,20.50
2019,04,06,07,50,18.30
2019,04,06,07,51,17.00
2019,04,06,07,52,18.00
2019,04,06,07,53,16.70
2019,04,06,07,54,16.00
2019,04,06,07,55,15.30
2019,04,06,07,56,15.40
2019,04,06,07,57,17.60
2019,04,06,07,58,16.40
2019,04,06,07,59,16.60
2019,04,06,08,00,15.30
2019,04,06,08,01,15.50
2019,04,06,08,02,16.50
2019,04,06,08,03,19.80
2019,04,06,08,04,20.30
2019,04,06,08,05,15.90
2019,04,06,08,06,18.90
2019,04,06,08,07,18.50
2019,04,06,08,08,19.40
2019,04,06,08,09,16.60
2019,04,06,08,10,18.80
2019,04,06,08,11,18.50
2019,04,06,08,12,20.70
2019,04,06,08,13,21.30
2019,04,06,08,14,16.30
2019,04,06,08,15,19.80
2019,04,06,08,16,18.30
2019,04,06,08,17,17.50
2019,04,06,08,18,18.60
2019,04,06,08,19,18.60
2019,04,06,08,20,15.40
2019,04,06,08,21,16.60
2019,04,06,08,22,18.80
2019,04,06,08,23,18.40
2019,04,06,08,24,18.50
2019,04,06,08,25,18.60
2019,04,06,08,26,19.60
2019,04,06,08,27,20.60
2019,04,06,08,28,19.50
2019,04,06,08,29,17.30
2019,04,06,08,30,18.30
2019,04,06,08,31,17.90
2019,04,06,08,32,18.90
2019,04,06,08,33,22.10
2019,04,06,08,34,19.70
2019,04,06,08,35,19.70
2019,04,06,08,36,19.40
2019,04,06,08,37,16.90
2019,04,06,08,38,19.50
2019,04,06,08,39,18.10
2019,04,06,08,40,15.20
2019,04,06,08,41,15.80
2019,04,06,08,42,17.30
2019,04,06,08,43,18.20
2019,04,06,08,44,18.60
2019,04,06,08,45,15.00
2019,04,06,08,46,14.90
2019,04,06,08,47,16.80
2019,04,06,08,48,16.80
2019,04,06,08,49,18.70
2019,04,06,08,50,19.70
2019,04,06,08,51,18.70
2019,04,06,08,52,17.00
2019,04,06,08,53,18.70
2019,04,06,08,54,19.80
2019,04,06,08,55,12.50
2019,04,06,08,56,16.00
2019,04,06,08,57,21.90
2019,04,06,08,58,18.00
2019,04,06,08,59,16.90
2019,04,06,09,00,12.50
2019,04,06,09,01,16.20
2019,04,06,09,02,17.80
2019,04,06,09,03,20.60
2019,04,06,09,04,19.40
2019,04,06,09,05,17.70
2019,04,06,09,06,17.00
2019,04,06,09,07,19.30
2019,04,06,09,08,19.60
2019,04,06,09,09,21.80
2019,04,06,09,10,21.60
2019,04,06,09,11,19.50
2019,04,06,09,12,19.60
2019,04,06,09,13,20.60
2019,04,06,09,14,21.40
2019,04,06,09,15,18.90
2019,04,06,09,16,18.00
2019,04,06,09,17,18.60
2019,04,06,09,18,19.40
2019,04,06,09,19,19.70
2019,04,06,09,20,21.80
2019,04,06,09,21,19.80
2019,04,06,09,22,19.60
2019,04,06,09,23,18.50
2019,04,06,09,24,14.10
2019,04,06,09,25,17.90
2019,04,06,09,26,15.60
2019,04,06,09,27,17.60
2019,04,06,09,28,18.40
2019,04,06,09,29,20.30
2019,04,06,09,30,20.20
2019,04,06,09,31,25.20
2019,04,06,09,32,13.80
2019,04,06,09,33,17.00
2019,04,06,09,34,20.10
2019,04,06,09,35,17.50
2019,04,06,09,36,14.60
2019,04,06,09,37,17.50
2019,04,06,09,38,19.30
2019,04,06,09,39,15.60
2019,04,06,09,40,18.80
2019,04,06,09,41,21.40
2019,04,06,09,42,27.10
2019,04,06,09,43,19.40
2019,04,06,09,44,20.80
2019,04,06,09,45,22.90
2019,04,06,09,46,17.40
2019,04,06,09,47,25.00
2019,04,06,09,48,17.50
2019,04,06,09,49,14.60
2019,04,06,09,50,16.60
2019,04,06,09,51,19.90
2019,04,06,09,52,14.50
2019,04,06,09,53,19.00
2019,04,06,09,54,16.80
2019,04,06,09,55,20.70
2019,04,06,09,56,14.00
2019,04,06,09,57,9.90
2019,04,06,09,58,8.90
2019,04,06,09,59,18.70
2019,04,06,10,00,19.70
2019,04,06,10,01,22.00
2019,04,06,10,02,15.20
2019,04,06,10,03,13.80
2019,04,06,10,04,13.00
2019,04,06,10,05,10.50
2019,04,06,10,06,12.50
2019,04,06,10,07,20.10
2019,04,06,10,08,13.90
2019,04,06,10,09,16.00
2019,04,06,10,10,15.30
2019,04,06,10,11,15.50
2019,04,06,10,12,17.90
2019,04,06,10,13,17.20
2019,04,06,10,14,12.40
2019,04,06,10,15,20.10
2019,04,06,10,16,16.20
2019,04,06,10,17,10.20
2019,04,06,10,18,14.00
2019,04,06,10,19,15.40
2019,04,06,10,20,12.90
2019,04,06,10,21,13.70
2019,04,06,10,22,17.80
2019,04,06,10,23,18.40
2019,04,06,10,24,19.50
2019,04,06,10,25,16.60
2019,04,06,10,26,20.40
2019,04,06,10,27,19.10
2019,04,06,10,28,14.20
2019,04,06,10,29,17.00
2019,04,06,10,30,9.80
2019,04,06,10,31,9.70
2019,04,06,10,32,12.00
2019,04,06,10,33,16.30
2019,04,06,10,34,15.40
2019,04,06,10,35,14.50
2019,04,06,10,36,21.60
2019,04,06,10,37,20.70
2019,04,06,10,38,17.00
2019,04,06,10,39,15.10
2019,04,06,10,40,15.30
2019,04,06,10,41,17.20
2019,04,06,10,42,12.60
2019,04,06,10,43,11.40
2019,04,06,10,44,14.50
2019,04,06,10,45,15.30
2019,04,06,10,46,11.70
2019,04,06,10,47,20.60
2019,04,06,10,48,14.90
2019,04,06,10,49,14.20
2019,04,06,10,50,18.20
2019,04,06,10,51,15.10
2019,04,06,10,52,18.40
2019,04,06,10,53,14.40
2019,04,06,10,54,18.60
2019,04,06,10,55,19.00
2019,04,06,10,56,12.00
2019,04,06,10,57,13.70
2019,04,06,10,58,16.30
2019,04,06,10,59,11.70
2019,04,06,11,00,7.80
2019,04,06,11,01,13.50
2019,04,06,11,02,11.30
2019,04,06,11,03,13.30
2019,04,06,11,04,12.80
2019,04,06,11,05,11.30
2019,04,06,11,06,10.80
2019,04,06,11,07,16.90
2019,04,06,11,08,16.40
2019,04,06,11,09,15.80
2019,04,06,11,10,18.60
2019,04,06,11,11,11.60
2019,04,06,11,12,9.10
2019,04,06,11,13,6.80
2019,04,06,11,14,16.70
2019,04,06,11,15,15.50
2019,04,06,11,16,10.30
2019,04,06,11,17,13.20
2019,04,06,11,18,12.60
2019,04,06,11,19,8.10
2019,04,06,11,20,11.30
2019,04,06,11,21,13.40
2019,04,06,11,22,14.20
2019,04,06,11,23,19.00
2019,04,06,11,24,16.80
2019,04,06,11,25,12.70
2019,04,06,11,26,17.50
2019,04,06,11,27,15.10
2019,04,06,11,28,15.20
2019,04,06,11,29,12.60
2019,04,06,11,30,14.70
2019,04,06,11,31,15.40
2019,04,06,11,32,15.30
2019,04,06,11,33,12.20
2019,04,06,11,34,13.70
2019,04,06,11,35,19.80
2019,04,06,11,36,17.80
2019,04,06,11,37,14.90
2019,04,06,11,38,17.60
2019,04,06,11,39,15.60
2019,04,06,11,40,14.40
2019,04,06,11,41,17.60
2019,04,06,11,42,19.30
2019,04,06,11,43,17.20
2019,04,06,11,44,15.90
2019,04,06,11,45,16.00
2019,04,06,11,46,14.00
2019,04,06,11,47,8.90
2019,04,06,11,48,9.10
2019,04,06,11,49,9.80
2019,04,06,11,50,10.80
2019,04,06,11,51,16.20
2019,04,06,11,52,21.10
2019,04,06,11,53,14.20
2019,04,06,11,54,10.70
2019,04,06,11,55,14.60
2019,04,06,11,56,15.30
2019,04,06,11,57,16.00
2019,04,06,11,58,15.90
2019,04,06,11,59,11.90
2019,04,06,12,00,16.00
2019,04,06,12,01,17.30
2019,04,06,12,02,15.70
2019,04,06,12,03,14.50
2019,04,06,12,04,15.30
2019,04,06,12,05,12.50
2019,04,06,12,06,15.60
2019,04,06,12,07,12.60
2019,04,06,12,08,13.70
2019,04,06,12,09,12.00
2019,04,06,12,10,9.50
2019,04,06,12,11,13.50
2019,04,06,12,12,19.20
2019,04,06,12,13,10.60
2019,04,06,12,14,12.20
2019,04,06,12,15,14.40
2019,04,06,12,16,17.20
2019,04,06,12,17,14.70
2019,04,06,12,18,11.00
2019,04,06,12,19,10.20
2019,04,06,12,20,13.70
2019,04,06,12,21,13.10
2019,04,06,12,22,8.30
2019,04,06,12,23,4.90
2019,04,06,12,24,8.50
2019,04,06,12,25,15.10
2019,04,06,12,26,14.10
2019,04,06,12,27,14.70
2019,04,06,12,28,15.10
2019,04,06,12,29,12.80
2019,04,06,12,30,13.20
2019,04,06,12,31,12.10
2019,04,06,12,32,13.00
2019,04,06,12,33,14.50
2019,04,06,12,34,9.50
2019,04,06,12,35,13.60
2019,04,06,12,36,14.10
2019,04,06,12,37,10.80
2019,04,06,12,38,13.40
2019,04,06,12,39,14.00
2019,04,06,12,40,10.70
2019,04,06,12,41,12.00
2019,04,06,12,42,12.80
2019,04,06,12,43,13.10
2019,04,06,12,44,15.20
2019,04,06,12,45,9.10
2019,04,06,12,46,9.00
2019,04,06,12,47,8.40
2019,04,06,12,48,13.50
2019,04,06,12,49,10.20
2019,04,06,12,50,10.40
2019,04,06,12,51,13.30
2019,04,06,12,52,14.00
2019,04,06,12,53,12.90
2019,04,06,12,54,8.10
2019,04,06,12,55,8.60
2019,04,06,12,56,9.50
2019,04,06,12,57,6.00
2019,04,06,12,58,6.30
2019,04,06,12,59,5.10
2019,04,06,13,00,5.40
2019,04,06,13,01,3.40
2019,04,06,13,02,2.00
2019,04,06,13,03,3.40
2019,04,06,13,04,2.80
2019,04,06,13,05,2.50
2019,04,06,13,06,2.80
2019,04,06,13,07,3.90
2019,04,06,13,08,4.70
2019,04,06,13,09,5.40
2019,04,06,13,10,6.30
2019,04,06,13,11,6.20
2019,04,06,13,12,5.40
2019,04,06,13,13,5.50
2019,04,06,13,14,6.70
2019,04,06,13,15,6.70
2019,04,06,13,16,5.10
2019,04,06,13,17,6.60
2019,04,06,13,18,5.30
2019,04,06,13,19,7.80
2019,04,06,13,20,5.00
2019,04,06,13,21,4.60
2019,04,06,13,22,7.10
2019,04,06,13,23,4.20
2019,04,06,13,24,3.30
2019,04,06,13,25,5.00
2019,04,06,13,26,4.00
2019,04,06,13,27,2.80
2019,04,06,13,28,3.30
2019,04,06,13,29,3.40
2019,04,06,13,30,2.60
2019,04,06,13,31,4.30
2019,04,06,13,32,6.00
2019,04,06,13,33,3.40
2019,04,06,13,34,1.60
2019,04,06,13,35,5.30
2019,04,06,13,36,4.80
2019,04,06,13,37,2.10
2019,04,06,13,38,0.30
2019,04,06,13,39,2.60
2019,04,06,13,40,2.70
2019,04,06,13,41,2.00
2019,04,06,13,42,2.10
2019,04,06,13,43,1.00
2019,04,06,13,44,0.50
2019,04,06,13,45,1.30
2019,04,06,13,46,0.70
2019,04,06,13,47,1.20
2019,04,06,13,48,0.60
2019,04,06,13,49,4.00
2019,04,06,13,50,4.20
2019,04,06,13,51,3.60
2019,04,06,13,52,4.00
2019,04,06,13,53,4.70
2019,04,06,13,54,4.80
2019,04,06,13,55,1.60
2019,04,06,13,56,7.70
2019,04,06,13,57,5.70
2019,04,06,13,58,3.80
2019,04,06,13,59,4.90
2019,04,06,14,00,3.20
2019,04,06,14,01,4.30
2019,04,06,14,02,3.30
2019,04,06,14,03,1.40
2019,04,06,14,04,1.00
2019,04,06,14,05,1.90
2019,04,06,14,06,2.00
2019,04,06,14,07,1.70
2019,04,06,14,08,2.40
2019,04,06,14,09,2.20
2019,04,06,14,10,2.90
2019,04,06,14,11,7.20
2019,04,06,14,12,5.40
2019,04,06,14,13,4.10
2019,04,06,14,14,5.40
2019,04,06,14,15,4.50
2019,04,06,14,16,8.00
2019,04,06,14,17,9.70
2019,04,06,14,18,5.30
2019,04,06,14,19,6.20
2019,04,06,14,20,8.00
2019,04,06,14,21,9.30
2019,04,06,14,22,11.10
2019,04,06,14,23,11.90
2019,04,06,14,24,13.30
2019,04,06,14,25,14.90
2019,04,06,14,26,10.00
2019,04,06,14,27,4.70
2019,04,06,14,28,4.50
2019,04,06,14,29,1.40
2019,04,06,14,30,6.20
2019,04,06,14,31,4.80
2019,04,06,14,32,3.10
2019,04,06,14,33,3.60
2019,04,06,14,34,3.90
2019,04,06,14,35,5.10
2019,04,06,14,36,7.90
2019,04,06,14,37,8.90
2019,04,06,14,38,5.60
2019,04,06,14,39,3.00
2019,04,06,14,40,3.70
2019,04,06,14,41,2.10
2019,04,06,14,42,4.70
2019,04,06,14,43,4.10
2019,04,06,14,44,2.70
2019,04,06,14,45,3.40
2019,04,06,14,46,2.90
2019,04,06,14,47,1.00
2019,04,06,14,48,4.70
2019,04,06,14,49,2.50
2019,04,06,14,50,1.40
2019,04,06,14,51,4.20
2019,04,06,14,52,5.70
2019,04,06,14,53,2.40
2019,04,06,14,54,5.40
2019,04,06,14,55,4.00
2019,04,06,14,56,2.10
2019,04,06,14,57,3.80
2019,04,06,14,58,5.20
2019,04,06,14,59,7.30
2019,04,06,15,00,5.90
2019,04,06,15,01,6.10
2019,04,06,15,02,5.10
2019,04,06,15,03,5.90
2019,04,06,15,04,5.80
2019,04,06,15,05,3.60
2019,04,06,15,06,3.80
2019,04,06,15,07,5.40
2019,04,06,15,08,2.60
2019,04,06,15,09,3.00
2019,04,06,15,10,4.30
2019,04,06,15,11,4.30
2019,04,06,15,12,3.00
2019,04,06,15,13,3.80
2019,04,06,15,14,4.30
2019,04,06,15,15,3.80
2019,04,06,15,16,3.40
2019,04,06,15,17,2.10
2019,04,06,15,18,6.00
2019,04,06,15,19,5.30
2019,04,06,15,20,6.10
2019,04,06,15,21,8.60
2019,04,06,15,22,4.40
2019,04,06,15,23,7.90
2019,04,06,15,24,7.50
2019,04,06,15,25,5.80
2019,04,06,15,26,8.00
2019,04,06,15,27,5.30
2019,04,06,15,28,3.60
2019,04,06,15,29,4.70
2019,04,06,15,30,8.40
2019,04,06,15,31,7.90
2019,04,06,15,32,10.10
2019,04,06,15,33,7.80
2019,04,06,15,34,6.70
2019,04,06,15,35,6.70
2019,04,06,15,36,5.70
2019,04,06,15,37,6.90
2019,04,06,15,38,4.40
2019,04,06,15,39,5.30
2019,04,06,15,40,6.30
2019,04,06,15,41,6.60
2019,04,06,15,42,10.20
2019,04,06,15,43,4.70
2019,04,06,15,44,6.10
2019,04,06,15,45,8.10
2019,04,06,15,46,7.00
2019,04,06,15,47,6.10
2019,04,06,15,48,6.60
2019,04,06,15,49,10.00
2019,04,06,15,50,4.80
2019,04,06,15,51,4.90
2019,04,06,15,52,4.10
2019,04,06,15,53,6.80
2019,04,06,15,54,11.90
2019,04,06,15,55,7.10
2019,04,06,15,56,5.50
2019,04,06,15,57,7.00
2019,04,06,15,58,15.10
2019,04,06,15,59,10.20
2019,04,06,16,00,6.10
2019,04,06,16,01,6.10
2019,04,06,16,02,5.60
2019,04,06,16,03,13.60
2019,04,06,16,04,9.00
2019,04,06,16,05,5.80
2019,04,06,16,06,5.20
2019,04,06,16,07,5.10
2019,04,06,16,08,4.60
2019,04,06,16,09,6.00
2019,04,06,16,10,5.30
2019,04,06,16,11,4.90
2019,04,06,16,12,5.40
2019,04,06,16,13,4.10
2019,04,06,16,14,6.00
2019,04,06,16,15,6.70
2019,04,06,16,16,7.90
2019,04,06,16,17,8.90
2019,04,06,16,18,3.20
2019,04,06,16,19,5.90
2019,04,06,16,20,6.40
2019,04,06,16,21,3.40
2019,04,06,16,22,2.30
2019,04,06,16,23,3.50
2019,04,06,16,24,6.20
2019,04,06,16,25,3.40
2019,04,06,16,26,4.30
2019,04,06,16,27,4.80
2019,04,06,16,28,2.60
2019,04,06,16,29,3.80
2019,04,06,16,30,5.40
2019,04,06,16,31,5.70
2019,04,06,16,32,5.90
2019,04,06,16,33,8.00
2019,04,06,16,34,5.80
2019,04,06,16,35,4.90
2019,04,06,16,36,9.20
2019,04,06,16,37,9.40
2019,04,06,16,38,2.80
2019,04,06,16,39,5.10
2019,04,06,16,40,3.50
2019,04,06,16,41,7.00
2019,04,06,16,42,6.60
2019,04,06,16,43,7.80
2019,04,06,16,44,3.40
2019,04,06,16,45,4.30
2019,04,06,16,46,10.60
2019,04,06,16,47,3.00
2019,04,06,16,48,6.30
2019,04,06,16,49,7.50
2019,04,06,16,50,7.10
2019,04,06,16,51,13.00
2019,04,06,16,52,7.80
2019,04,06,16,53,6.30
2019,04,06,16,54,3.30
2019,04,06,16,55,6.90
2019,04,06,16,56,8.30
2019,04,06,16,57,8.20
2019,04,06,16,58,7.20
2019,04,06,16,59,8.60
2019,04,06,17,00,4.60
2019,04,06,17,01,6.00
2019,04,06,17,02,5.10
2019,04,06,17,03,6.00
2019,04,06,17,04,6.60
2019,04,06,17,05,5.10
2019,04,06,17,06,5.50
2019,04,06,17,07,7.50
2019,04,06,17,08,6.60
2019,04,06,17,09,8.60
2019,04,06,17,10,8.00
2019,04,06,17,11,9.20
2019,04,06,17,12,4.50
2019,04,06,17,13,10.60
2019,04,06,17,14,7.50
2019,04,06,17,15,3.20
2019,04,06,17,16,4.30
2019,04,06,17,17,3.40
2019,04,06,17,18,3.30
2019,04,06,17,19,2.40
2019,04,06,17,20,3.20
2019,04,06,17,21,5.10
2019,04,06,17,22,3.70
2019,04,06,17,23,3.90
2019,04,06,17,24,3.40
2019,04,06,17,25,1.20
2019,04,06,17,26,3.00
2019,04,06,17,27,3.90
2019,04,06,17,28,5.00
2019,04,06,17,29,7.50
2019,04,06,17,30,5.50
2019,04,06,17,31,3.80
2019,04,06,17,32,5.30
2019,04,06,17,33,3.80
2019,04,06,17,34,3.70
2019,04,06,17,35,5.70
2019,04,06,17,36,8.70
2019,04,06,17,37,7.00
2019,04,06,17,38,3.00
2019,04,06,17,39,3.80
2019,04,06,17,40,3.10
2019,04,06,17,41,3.50
2019,04,06,17,42,5.80
2019,04,06,17,43,3.90
2019,04,06,17,44,3.80
2019,04,06,17,45,1.90
2019,04,06,17,46,2.60